Location: Cactus School
(34.5700°N, 118.0931°W)
Time: 08:17:12
(UTC-08:00)

Hubble Space Telescope - Pass Details

Date: 19 November 2017
Orbit: 537 x 541 km, 28.5° (Epoch: 21 November)

Event Time Altitude Azimuth Distance (km) Brightness Sun altitude
Exits shadow 04:30:12 27° 175° (S) 1,046 2.3 -24.6°
Maximum altitude 04:30:27 27° 169° (SSE) 1,041 2.3 -24.5°
Drops below altitude 10° 04:33:57 10° 110° (ESE) 1,781 4.5 -23.8°
Sets 04:36:27 0° 98° (E) 2,673 5.8 -23.3°
